Location: Zagreb
(45.8000°N, 16.0000°E)
Time: 23:15:34
(UTC+02:00)

ISS - Visible Passes

Search period start: 30 July 2014 00:00
Search period end: 09 August 2014 00:00
Orbit: 411 x 419 km, 51.6° (Epoch: 30 July)

Date Brightness Start Highest point End Pass type
(mag) Time Alt. Az. Time Alt. Az. Time Alt. Az.
30 Jul -0.9 01:12:46 20° NE 01:12:46 20° NE 01:14:00 10° ENE visible
30 Jul -1.3 02:45:37 15° WNW 02:47:53 29° N 02:50:53 10° ENE visible
30 Jul -2.1 04:21:52 10° NW 04:25:07 45° NNE 04:28:22 10° E visible
31 Jul -1.4 01:58:28 29° NNW 01:58:54 30° N 02:01:56 10° ENE visible
31 Jul -1.6 03:33:02 10° NW 03:36:11 36° NNE 03:39:20 10° E visible
01 Aug -1.0 01:11:24 23° NE 01:11:24 23° NE 01:13:03 10° NE visible
01 Aug -1.4 02:44:16 11° NW 02:47:13 31° N 02:50:16 10° ENE visible
01 Aug -3.2 04:20:52 10° WNW 04:24:15 84° NNE 04:27:37 10° ESE visible
02 Aug -1.2 01:57:26 26° NNW 01:58:13 29° N 02:01:13 10° ENE visible
02 Aug -2.6 03:32:03 10° WNW 03:35:22 57° NNE 03:38:42 10° ESE visible
02 Aug -2.4 21:52:35 10° SSW 21:55:21 27° SE 21:55:21 27° SE visible
03 Aug -0.5 01:11:18 16° NE 01:11:18 16° NE 01:12:12 10° ENE visible
03 Aug -2.0 02:44:17 18° NW 02:46:27 43° NNE 02:49:40 10° E visible
03 Aug -2.9 04:19:58 10° WNW 04:23:11 43° SW 04:26:23 10° SE visible
03 Aug -1.7 21:04:32 10° S 21:06:47 17° SE 21:09:04 10° E visible
03 Aug -3.3 22:39:48 10° WSW 22:43:08 81° NNW 22:45:01 24° ENE visible
04 Aug -0.6 00:17:09 10° WNW 00:18:02 16° WNW 00:18:02 16° WNW visible
04 Aug -0.4 02:00:14 12° ENE 02:00:14 12° ENE 02:00:35 10° E visible
04 Aug -3.4 03:33:23 41° WNW 03:34:23 70° SSW 03:37:43 10° SE visible
04 Aug -3.4 21:50:59 10° SW 21:54:17 66° SSE 21:57:37 10° ENE visible
04 Aug -1.7 23:28:04 10° W 23:31:11 35° NNW 23:32:12 28° NNE visible
05 Aug -2.8 21:02:20 10° SW 21:05:29 40° SE 21:08:39 10° ENE visible
05 Aug -2.1 22:38:59 10° W 22:42:12 44° NNW 22:45:26 10° NE visible
06 Aug -0.9 00:16:27 10° WNW 00:18:18 23° NNW 00:18:18 23° NNW visible
06 Aug -2.7 21:49:57 10° WSW 21:53:15 60° NNW 21:56:34 10° ENE visible
06 Aug -1.3 23:27:24 10° WNW 23:30:23 29° N 23:31:13 26° NNE visible
07 Aug -3.3 21:01:00 10° WSW 21:04:19 87° NNW 21:07:41 10° ENE visible
07 Aug -1.4 22:38:18 10° WNW 22:41:20 31° N 22:44:00 12° NE visible
08 Aug -0.7 00:15:32 10° NW 00:16:51 20° NW 00:16:51 20° NW visible
08 Aug -1.7 21:49:11 10° W 21:52:18 36° NNW 21:55:27 10° NE visible
08 Aug -1.4 23:26:34 10° WNW 23:29:34 30° N 23:29:34 30° N visible
